STARLINK-5296, 55312

Orbit data source: Space-Track

STARLINK-5296, 55312 is a payload satellite owned by SpaceX/Seattle (US) in LEO that was launched on Thu, 19 Jan 2023 UTC via an FALCON 9 launch vehicle from the Air Force Western Test Range (AFWTR). Payload-class satellites include a variety of spacecraft equipped with specific instruments for various scientific and technological missions. These include communications satellites like Starlink; space stations such as the ISS; scientific satellites like the Hubble; Earth observation satellites from companies like Planet Labs, Umbra, and HawkEye 360; GPS; miniature CubeSats for education and research; and military/defense satellites.

Loading next visibility...
Identifier
55312, 2023-010AV
Orbit
LEO
Country
Flag of USUS
Related business
Manufacturer
SpaceX/Seattle
Mission
Operational Commercial Communications
Bus & Motor
STARLINK, Unknown motor
Mass
305 kg wet, ~290 kg dry
Launch date (UTC)
2023-01-19 (3 years ago)
Launch vehicle
FALCON 9
Launch site
Air Force Western Test Range (AFWTR)
Object type
Payload
Rocket body
Debris
Shape & HBR
Box + 1 Pan, 10.1 m
Radar Cross Section
13.562 m², Large (>1 m²)

Expand to show TLE details & history
Last TLE update: 2 days ago

TLE from 2 days ago
0 STARLINK-5296
1 55312U 23010AV  26171.23095027  .00000227  00000-0  26826-4 0  9996
2 55312  69.9995 105.7330 0003002 268.9712  91.1103 14.98332236189985
Epoch: 2026-06-20T05:32Z
TLE epoch observation values (Epoch: 2026-06-20T05:32:34.103Z)
Latitude
-0.00003°
Longitude
114.14235°
Altitude
574.514 km
Speed
7.574 km/s
True Right ascension
07h 02m 55s
True Declination
0° 00' 00"
Sunlit
Object was in daylight at epoch
Visualization orbit readout
Latitude
Unknown
Longitude
Unknown
Altitude
Unknown
Speed
Unknown
Apparent Right ascension
Unknown
Apparent Declination
Unknown
Sunlit
N/A
Visualization observer readout
Local Sidereal Time
21:31:06
Azimuth
Unknown
Elevation
Unknown
Doppler factor
Unknown
Orbital elements
Apogee altitude
572.083 km
Perigee altitude
567.911 km
Semi-major axis
6,948.134 km
Eccentricity
0.0003
Inclination
69.9995°
RAAN
105.733°
Arg. of periapsis
268.9712°
True anomaly
91.14469°
Mean anomaly
91.1103°
Eccentric anomaly
91.1275°
Mean motion
3.74749 °/min
Orbital period
96.06 mins
BSTAR
0.000026826
Loading maneuver chart data...
Computing Atmospheric mass density...
Loading historical data...
Loading historical data...
Loading historical data...
Loading historical data...
Loading historical data...
Loading historical data...
Loading historical data...

Documentation

Showing up to 5 results
|